Juneau, AK

9:17 PM AKDT on June 23, 2017 (GMT -0800)
Juneau International

Weather History for PAJN - February, 2013

Change the Weather History Date:

Wednesday, February 13, 2013

  Actual Average Record
Temperature  
Mean Temperature 34 °F 30 °F  
Max Temperature 37 °F 35 °F 50 °F (2004)
Min Temperature 31 °F 25 °F -10 °F (1975)
Degree Days  
Heating Degree Days 31 35  
Month to date heating degree days 383 462  
Since 1 July heating degree days 5637 5322  
Moisture  
Dew Point 31 °F    
Average Humidity 91    
Maximum Humidity 100    
Minimum Humidity 82    
Precipitation  
Precipitation 0.05 in 0.15 in 2.35 in (1949)
Month to date precipitation 3.53 1.95  
Year to date precipitation 11.23 7.30  
Snow  
Snow 0.80 in 0.60 in 23.50 in (1949)
Month to date snowfall 0.8 9.1  
Since 1 July snowfall 62.8 66.3  
Snow Depth T in    
Sea Level Pressure  
Sea Level Pressure 30.19 in    
Wind  
Wind Speed 13 mph (East)    
Max Wind Speed 22 mph    
Max Gust Speed 28 mph    
Visibility 8 miles    
Events Rain , Snow    
T = Trace of Precipitation, MM = Missing Value Source: NWS Daily Summary

Daily Weather History Graph

Daily Weather History Graph

Search for Another Location

Airport or City:

Trip Planner

Search our weather history database for the weather conditions in past years. The results will help you decide how hot, cold, wet, or windy it might be!

Date:

Astronomy

Feb. 13, 2013 Rise Set
Actual Time 7:34 AM AKST 4:51 PM AKST
Civil Twilight 6:52 AM AKST 5:33 PM AKST
Nautical Twilight 6:06 AM AKST 6:19 PM AKST
Astronomical Twilight 5:20 AM AKST 7:05 PM AKST
Moon 8:05 AM AKST (2/13) 10:12 PM AKST (2/13)
Length of Visible Light 10h 40m
Length of Day
9h 16m
Waxing Crescent, 15% of the Moon is Illuminated
Feb 13
Waxing Crescent
Feb 17
First Quarter
Feb 25
Full
Mar 4
Last Quarter
Mar 11
New

Hourly Weather History & Observations

Time (AKST) Temp. Windchill Dew Point Humidity Pressure Visibility Wind Dir Wind Speed Gust Speed Precip Events Conditions
12:53 AM 33.1 °F 25.5 °F 28.0 °F 82% 30.15 in 10.0 mi East 9.2 mph - N/A   Overcast
1:53 AM 33.1 °F 26.1 °F 28.9 °F 85% 30.16 in 10.0 mi East 8.1 mph - N/A   Overcast
3:39 AM 32.0 °F 24.8 °F 28.9 °F 88% 30.19 in 2.5 mi East 8.1 mph - 0.00 in Snow Light Snow
3:53 AM 30.9 °F 23.5 °F 30.0 °F 96% 30.19 in 1.5 mi East 8.1 mph - 0.01 in Snow Light Snow
4:11 AM 30.9 °F 24.3 °F 30.0 °F 96% 30.20 in 2.0 mi East 6.9 mph - 0.01 in Snow Light Snow
4:53 AM 30.9 °F 23.5 °F 30.0 °F 96% 30.19 in 2.0 mi ENE 8.1 mph - 0.02 in Snow Light Snow
5:13 AM 32.0 °F 24.8 °F 28.9 °F 88% 30.19 in 4.0 mi ENE 8.1 mph - 0.00 in Snow Light Snow
5:38 AM 32.0 °F 23.0 °F 30.0 °F 92% 30.19 in 5.0 mi ENE 11.5 mph - 0.00 in Snow Light Snow
5:53 AM 32.0 °F 23.0 °F 30.0 °F 92% 30.19 in 5.0 mi East 11.5 mph - 0.00 in Snow Light Snow
6:53 AM 33.1 °F 23.9 °F 30.9 °F 92% 30.18 in 9.0 mi East 12.7 mph 21.9 mph 0.00 in Snow Light Snow
7:53 AM 33.1 °F 25.5 °F 30.9 °F 92% 30.20 in 8.0 mi East 9.2 mph - 0.00 in Snow Light Snow
8:53 AM 33.1 °F 23.9 °F 30.9 °F 92% 30.22 in 8.0 mi East 12.7 mph - 0.00 in Snow Light Snow
9:16 AM 33.1 °F 24.4 °F 30.9 °F 92% 30.22 in 4.0 mi East 11.5 mph - 0.00 in Snow Light Snow
9:33 AM 33.1 °F 24.9 °F 30.9 °F 92% 30.22 in 6.0 mi East 10.4 mph - 0.00 in Snow Light Snow
9:53 AM 33.1 °F 24.4 °F 30.9 °F 92% 30.22 in 8.0 mi East 11.5 mph - 0.01 in Snow Light Snow
10:53 AM 35.1 °F 25.9 °F 32.0 °F 89% 30.23 in 10.0 mi East 13.8 mph - 0.00 in   Overcast
11:53 AM 35.1 °F 25.9 °F 32.0 °F 89% 30.24 in 10.0 mi ESE 13.8 mph - 0.00 in Rain Light Rain
12:53 PM 36.0 °F 26.7 °F 32.0 °F 86% 30.24 in 10.0 mi ESE 15.0 mph - 0.00 in   Overcast
1:53 PM 36.0 °F 27.1 °F 32.0 °F 86% 30.24 in 10.0 mi ESE 13.8 mph - N/A   Overcast
2:03 PM 36.0 °F 26.7 °F 32.0 °F 86% 30.23 in 10.0 mi ESE 15.0 mph - N/A   Overcast
2:53 PM 36.0 °F 26.7 °F 32.0 °F 86% 30.22 in 10.0 mi ESE 15.0 mph - N/A   Overcast
3:53 PM 36.0 °F 26.7 °F 32.0 °F 86% 30.19 in 10.0 mi ESE 15.0 mph - 0.00 in Rain Light Rain
4:53 PM 36.0 °F 26.7 °F 32.0 °F 86% 30.19 in 10.0 mi ESE 15.0 mph - 0.00 in   Overcast
5:53 PM 36.0 °F 26.7 °F 32.0 °F 86% 30.18 in 10.0 mi ESE 15.0 mph - 0.00 in Rain Light Rain
6:53 PM 36.0 °F 27.1 °F 30.9 °F 82% 30.18 in 10.0 mi ESE 13.8 mph - 0.00 in Rain Light Rain
7:53 PM 36.0 °F 26.7 °F 30.9 °F 82% 30.17 in 10.0 mi East 15.0 mph - 0.00 in Rain Light Rain
8:53 PM 35.1 °F 24.8 °F 32.0 °F 89% 30.18 in 9.0 mi ESE 17.3 mph - 0.00 in Rain , Snow Light Rain
9:53 PM 35.1 °F 24.1 °F 30.9 °F 85% 30.14 in 10.0 mi ESE 19.6 mph 27.6 mph 0.00 in Rain , Snow Light Rain
10:53 PM 34.0 °F 25.0 °F 32.0 °F 92% 30.14 in 10.0 mi East 12.7 mph - 0.00 in Rain , Snow Light Snow
11:53 PM 33.1 °F 21.9 °F 32.0 °F 96% 30.12 in 10.0 mi East 18.4 mph - 0.01 in Rain , Snow Light Snow